TIME,DELAY(SENSOR),PRES,OXYGEN,RAWTEMP,T(OPTODE),TCPHASE,FLUOR,BETA(BETA700),BETA(BETA412),BETA(BETA440),CDOM,C(CSC),ED(ED411.90),ED(ED443.80),ED(ED489.40),ED(ED554.70),LU(LU412.20),LU(LU443.80),LU(LU489.40),LU(LU555.00),COMP,TILTX,TILTY,CHECK
1372200836,5806,846.9199829101562000,154.4181976318359400,383.5134887695312500,11.1046800613403320,39.1440696716308600,52,99,92,79,79,10343,2146960960,2147518537,2147287634,2147487570,2147083894,2146933056,2147691785,2147124086,461,-1,9,32826
1372204432,5805,962.1500244140625000,169.0520019531250000,474.8344116210937500,8.3081865310668950,39.5366783142089840,52,101,94,79,79,10342,2146964041,2147519040,2147298441,2147505289,2147086034,2146923748,2147711616,2147123044,1648,-1,8,22484
1372208032,5805,982.9600219726562000,165.6992034912109400,488.7542114257812500,7.8779668807983400,40.0195884704589840,52,99,93,78,80,10336,2146964251,2147514294,2147296749,2147509138,2147084315,2146923547,2147713499,2147119616,464,-1,8,53784
1372211632,5805,987.2199707031250000,165.2066040039062500,491.2377014160156000,7.8010821342468260,40.0988693237304700,53,95,92,79,79,10328,2146963291,2147516891,2147298715,2147510921,2147086610,2146923611,2147708992,2147119341,3359,-1,8,60166
1372215232,5805,991.3699951171875000,181.8491973876953000,493.0598144531250000,7.7446470260620120,38.9515914916992200,52,96,93,79,81,10333,2146962852,2147518116,2147293604,2147513252,2147086116,2146921627,2147718089,2147124306,3127,-1,8,64785
1372218832,5805,992.4799804687500000,179.7539978027343800,493.2842102050781000,7.7376952171325680,39.0988998413085940,51,98,93,79,80,10317,2146962761,2147516562,2147298953,2147512237,2147083300,2146926857,2147716516,2147122779,325,-1,8,58478
1372222432,5807,993.2199707031250000,169.2028045654297000,494.2850036621094000,7.7066869735717770,39.8582496643066400,51,96,94,78,80,10318,2146962706,2147516114,2147298761,2147512429,2147085403,2146926381,2147714176,2147122020,292,0,8,20573
1372226032,5805,1000.9299926757812000,177.2106933593750000,494.0759887695312500,7.7131648063659670,39.2883110046386700,52,98,93,78,80,10322,2146968073,2147518390,2147296493,2147509677,2147082550,2146925339,2147718893,2147123904,100,-1,8,42183
1372229632,5807,994.0800170898438000,158.0727996826172000,496.3794860839844000,7.6417708396911620,40.7237281799316400,52,104,94,79,80,10322,2146964443,2147518390,2147300352,2147511643,2147086957,2146926125,2147714971,2147123245,301,-1,8,6261
1372233232,5804,1000.3699951171875000,180.9911041259765600,497.0752868652344000,7.6202001571655270,39.0794410705566400,53,100,96,78,80,10300,2146965412,2147516644,2147295515,2147512832,2147086528,2146926912,2147709037,2147122706,3150,-1,8,45018
1372236832,5805,1001.0700073242188000,186.4116973876953000,496.0346984863281000,7.6524600982666020,38.6979484558105500,52,97,95,79,80,10238,2146962633,2147517485,2147299172,2147512676,2147087012,2146923657,2147717476,2147118966,1998,-1,9,43761
1372240432,5804,1000.0300292968750000,191.1363983154297000,496.6098022460937500,7.6346340179443360,38.3996391296386700,52,99,94,78,80,10243,2146962249,2147517942,2147298861,2147512393,2147087387,2146926784,2147712356,2147121261,2458,-1,8,5082
1372244032,5809,999.1900024414062000,191.1614990234375000,496.7612915039062500,7.6299362182617190,38.4005088806152340,51,97,93,79,80,10241,2146964726,2147518848,2147298496,2147515318,2147088594,2146918692,2147716041,2147124617,2661,-1,8,8883
1372247632,5805,1001.0999755859375000,190.6893005371093800,496.4635925292969000,7.6391649246215820,38.4257316589355500,52,98,92,84,80,10236,2146964882,2147516534,2147300251,2147511040,2147083712,2146919149,2147718098,2147123629,2646,0,8,27492
1372251232,5805,1000.0399780273438000,189.6777038574218800,497.4265136718750000,7.6093130111694340,38.5080490112304700,52,98,94,79,80,10235,2146961005,2147517778,2147293677,2147509348,2147087442,2146921060,2147715346,2147121261,2965,-1,9,17984
1372254832,5806,998.7199707031250000,190.2162017822265600,497.7282104492187500,7.5999569892883300,38.4782905578613300,51,98,94,81,80,10231,2146961828,2147518820,2147298834,2147511826,2147086198,2146922075,2147713344,2147122249,3221,-1,8,28419
1372258432,5805,1002.0999755859375000,191.2798004150390600,497.6908874511719000,7.6011118888854980,38.4092216491699200,53,99,92,80,81,10229,2146963840,2147518080,2147298688,2147508918,2147087213,2146917449,2147717284,2147121856,3259,-1,9,21918
1372262032,5804,1002.3800048828125000,191.0930938720703000,498.0138854980469000,7.5910978317260740,38.4268684387207000,53,98,93,80,79,10234,2146960722,2147518080,2147298770,2147512603,2147084955,2146918820,2147716187,2147121371,3451,-1,8,8387
1372265632,5806,1001.5200195312500000,186.4909973144531200,498.3021850585937500,7.5821552276611330,38.7321815490722660,52,102,93,78,79,10233,2146962523,2147518473,2147298825,2147511689,2147086354,2146916224,2147712612,2147121088,3221,-1,8,7947
1372269232,5806,1002.0200195312500000,188.1221923828125000,498.5403137207031000,7.5747737884521480,38.6291389465332000,52,98,92,79,81,10231,2146962907,2147521892,2147299236,2147511734,2147084690,2146918326,2147716891,2147122038,479,-1,8,2121
1372272832,5806,1000.4600219726562000,185.9624023437500000,498.8240966796875000,7.5659708976745605,38.7764091491699200,51,96,93,78,79,10215,2146962459,2147517385,2147299309,2147510500,2147085696,2146917686,2147717394,2147123236,3345,-1,9,4140
1372276432,5807,1002.3200073242188000,183.3350067138672000,499.1780090332031000,7.5549921989440920,38.9576683044433600,52,98,97,78,79,10212,2146961892,2147515254,2147297718,2147511040,2147079652,2146919131,2147716370,2147119533,3468,-1,8,35486
1372280032,5806,1003.3699951171875000,189.7241973876953000,498.0075988769531000,7.5912919044494630,38.5149002075195300,52,100,94,80,80,10214,2146960521,2147515712,2147298907,2147512585,2147083035,2146920795,2147716388,2147122441,545,0,8,41337
1372283632,5807,1003.7700195312500000,190.4604034423828000,497.8299865722656000,7.5967998504638670,38.4637107849121100,52,98,94,81,79,10215,2146960192,2147512420,2147297490,2147511835,2147086043,2146920832,2147711853,2147122294,162,-1,8,37347
1372287232,5805,1003.2100219726562000,184.4694061279297000,498.2272949218750000,7.5844798088073730,38.8654785156250000,52,96,95,77,80,10212,2146965851,2147516406,2147296356,2147509394,2147085202,2146921380,2147714523,2147120585,3063,-1,9,11667
1372290832,5806,998.8800048828125000,194.5758972167968800,500.7232055664062500,7.5070562362670900,38.2512397766113300,52,98,100,79,80,10213,2146963684,2147516635,2147295460,2147511259,2147085229,2146917248,2147716260,2147123099,2557,-1,8,59368
1372294432,5808,997.9600219726562000,195.7321929931640600,501.1867065429687500,7.4926738739013670,38.1860084533691400,52,100,103,78,80,10209,2146964489,2147517074,2147298139,2147511460,2147085275,2146922541,2147716178,2147120612,2699,-1,8,10264
1372298032,5804,1005.5900268554688000,193.8016967773437500,498.7340087890625000,7.5687661170959470,38.2654685974121100,52,98,93,77,81,10211,2146964251,2147518134,2147299318,2147512018,2147084288,2146921280,2147714075,2147122642,2759,0,8,2802
1372301632,5803,999.0300292968750000,191.3890075683593800,500.6376953125000000,7.5097079277038570,38.4527015686035160,52,98,93,79,80,10212,2146961243,2147518930,2147296758,2147511049,2147085293,2146917705,2147715090,2147122285,2562,-1,8,44322
1372305232,5806,1001.9600219726562000,194.1699981689453000,500.6677856445312500,7.5087752342224120,38.2754516601562500,51,98,92,79,79,10210,2146962331,2147519277,2147298066,2147509321,2147085741,2146921545,2147715145,2147123044,3091,-1,8,40183
1372308832,5805,1002.5000000000000000,193.7940063476562500,500.8179016113281000,7.5041179656982420,38.3022308349609400,52,96,93,78,80,10211,2146962139,2147518473,2147298313,2147513152,2147086546,2146913161,2147716946,2147120786,3406,-1,8,15566
1372312432,5801,1003.1300048828125000,194.8157043457031200,501.1173095703125000,7.4948239326477050,38.2422904968261700,52,94,94,79,80,10199,2146960941,2147518208,2147297060,2147512914,2147085558,2146920201,2147719789,2147123593,3407,0,8,29484
1372316032,5804,1001.6900024414062000,195.3686065673828000,499.9202880859375000,7.5319681167602540,38.1869812011718750,51,97,93,79,80,10174,2146961051,2147518098,2147295606,2147510939,2147086966,2146920283,2147717860,2147121974,3398,-1,8,48949
1372319632,5805,1004.0000000000000000,192.2055053710937500,500.5542907714844000,7.5122961997985840,38.3989715576171900,52,97,93,79,80,10177,2146964004,2147515840,2147299456,2147511478,2147084608,2146920493,2147714989,2147121536,3479,-1,8,61166
1372323232,5806,1001.6300048828125000,190.3502960205078000,500.9808044433594000,7.4990620613098145,38.5262794494628900,51,97,94,80,79,10176,2146962605,2147519945,2147297069,2147511588,2147086747,2146919670,2147718208,2147125110,3378,-1,8,51408
1372326832,5808,1004.3200073242188000,194.3137969970703000,501.1524963378906000,7.4937348365783690,38.2750511169433600,52,100,92,79,80,10178,2146962934,2147517385,2147298843,2147510692,2147085659,2146920018,2147719972,2147122477,26,-1,8,4433
1372330432,5806,1007.4500122070312000,195.8811035156250000,498.8671875000000000,7.5646347999572750,38.1359710693359400,52,98,93,79,80,10175,2146964059,2147514989,2147297444,2147513142,2147087451,2146916480,2147717961,2147123702,514,0,8,33653
1372334032,5804,1008.1500244140625000,195.0614013671875000,498.6105041503906000,7.5725960731506350,38.1838417053222660,52,98,92,81,80,10172,2146961060,2147514898,2147301750,2147511424,2147083904,2146920484,2147717650,2147120585,3549,-1,8,41592
1372337632,5810,1006.1300048828125000,189.5249938964843800,501.0751953125000000,7.4961338043212890,38.5816307067871100,52,96,92,78,79,10172,2146961088,2147520073,2147298404,2147511680,2147087561,2146922230,2147715648,2147119652,47,-1,8,60986
1372341232,5804,1006.7700195312500000,189.2133026123047000,499.2796936035156000,7.5518379211425780,38.5702400207519500,51,98,94,80,79,10170,2146960566,2147516342,2147298980,2147512466,2147084516,2146919798,2147714971,2147121261,3263,-1,9,1264
1372343156,5805,1005.5599975585938000,188.9456939697265600,500.4926147460937500,7.5142087936401370,38.6087608337402340,51,95,95,79,79,10311,2146958153,2147516955,2147298267,2147510171,2147086345,2146920502,2147715602,2147121618,3515,-1,8,39257
